TimeEST,TemperatureF,Dew PointF,Humidity,Sea Level PressureIn,VisibilityMPH,Wind Direction,Wind SpeedMPH,Gust SpeedMPH,PrecipitationIn,Events,Conditions,WindDirDegrees,DateUTC
12:54 AM,26.1,10.0,51,29.92,10.0,NW,10.4,-,N/A,,Mostly Cloudy,310,2013-01-22 05:54:00
1:54 AM,25.0,10.9,55,29.94,10.0,WNW,13.8,-,N/A,,Scattered Clouds,300,2013-01-22 06:54:00
2:54 AM,24.1,7.0,48,29.96,10.0,WNW,12.7,26.5,N/A,,Partly Cloudy,290,2013-01-22 07:54:00
3:54 AM,21.9,1.9,42,30.00,10.0,West,21.9,32.2,N/A,,Partly Cloudy,280,2013-01-22 08:54:00
4:54 AM,19.9,-2.0,38,30.03,10.0,WNW,18.4,25.3,N/A,,Scattered Clouds,290,2013-01-22 09:54:00
5:54 AM,19.9,-0.9,40,30.05,10.0,West,16.1,24.2,N/A,,Partly Cloudy,280,2013-01-22 10:54:00
6:54 AM,19.0,-0.9,42,30.08,10.0,WNW,21.9,27.6,N/A,,Partly Cloudy,290,2013-01-22 11:54:00
7:54 AM,19.0,-0.9,42,30.10,10.0,WNW,17.3,28.8,N/A,,Clear,300,2013-01-22 12:54:00
8:54 AM,19.0,-0.9,42,30.12,10.0,West,23.0,27.6,N/A,,Partly Cloudy,280,2013-01-22 13:54:00
9:54 AM,19.9,-0.0,42,30.16,10.0,West,17.3,26.5,N/A,,Partly Cloudy,280,2013-01-22 14:54:00
10:54 AM,19.9,-2.9,37,30.16,10.0,WNW,19.6,-,N/A,,Scattered Clouds,300,2013-01-22 15:54:00
11:54 AM,21.0,-4.0,33,30.14,10.0,WNW,21.9,32.2,N/A,,Scattered Clouds,290,2013-01-22 16:54:00
12:54 PM,21.9,-2.9,34,30.12,10.0,WNW,13.8,24.2,N/A,,Scattered Clouds,290,2013-01-22 17:54:00
1:54 PM,21.9,-4.0,32,30.11,10.0,NW,18.4,28.8,N/A,,Scattered Clouds,320,2013-01-22 18:54:00
2:54 PM,21.9,-5.1,30,30.13,10.0,West,21.9,32.2,N/A,,Scattered Clouds,280,2013-01-22 19:54:00
3:54 PM,21.0,-5.1,32,30.15,10.0,WNW,16.1,26.5,N/A,,Scattered Clouds,290,2013-01-22 20:54:00
4:54 PM,19.9,-6.0,32,30.18,10.0,NW,19.6,32.2,N/A,,Partly Cloudy,310,2013-01-22 21:54:00
5:54 PM,19.9,-5.1,33,30.20,10.0,WNW,12.7,20.7,N/A,,Partly Cloudy,290,2013-01-22 22:54:00
6:54 PM,19.0,-5.1,34,30.24,10.0,WNW,12.7,21.9,N/A,,Clear,300,2013-01-22 23:54:00
7:54 PM,18.0,-6.0,35,30.25,10.0,WNW,11.5,-,N/A,,Clear,300,2013-01-23 00:54:00
8:54 PM,18.0,-6.0,35,30.26,10.0,WNW,11.5,-,N/A,,Clear,300,2013-01-23 01:54:00
9:54 PM,17.1,-5.1,37,30.29,10.0,WNW,12.7,-,N/A,,Partly Cloudy,300,2013-01-23 02:54:00
10:54 PM,16.0,-7.1,36,30.30,10.0,WNW,16.1,24.2,N/A,,Partly Cloudy,290,2013-01-23 03:54:00
11:54 PM,16.0,-8.0,34,30.28,10.0,NW,10.4,-,N/A,,Clear,310,2013-01-23 04:54:00